Time,TemperatureF,DewpointF,PressureIn,WindDirection,WindDirectionDegrees,WindSpeedMPH,WindSpeedGustMPH,Humidity,HourlyPrecipIn,Conditions,Clouds,dailyrainin,SolarRadiationWatts/m^2,SoftwareType,DateUTC
2013-06-04 00:00:00,68.6,55.5,29.86,North,350,0.0,0.0,63,0.00,,,0.40,0,LWC V2.00 B2112,2013-06-04 04:00:00,
2013-06-04 00:01:00,68.6,55.5,29.86,North,350,0.0,0.0,63,0.00,,,0.40,0,LWC V2.00 B2112,2013-06-04 04:01:00,
2013-06-04 00:06:00,68.5,55.4,29.86,North,350,0.0,1.0,63,0.00,,,0.00,0,LWC V2.00 B2112,2013-06-04 04:06:00,
2013-06-04 00:11:00,68.4,54.9,29.86,North,350,0.0,1.0,62,0.00,,,0.00,0,LWC V2.00 B2112,2013-06-04 04:11:00,
2013-06-04 00:16:00,68.1,52.3,29.87,North,350,0.0,2.0,57,0.00,,,0.00,0,LWC V2.00 B2112,2013-06-04 04:16:00,
2013-06-04 00:21:00,68.0,51.2,29.88,SW,219,0.0,3.0,55,0.00,,,0.00,0,LWC V2.00 B2112,2013-06-04 04:21:00,
2013-06-04 00:26:00,67.9,50.6,29.88,SW,215,0.0,2.0,54,0.00,,,0.00,0,LWC V2.00 B2112,2013-06-04 04:26:00,
2013-06-04 00:31:00,67.8,49.5,29.88,SSW,209,0.0,3.0,52,0.00,,,0.00,0,LWC V2.00 B2112,2013-06-04 04:31:00,
2013-06-04 00:35:00,67.7,49.4,29.88,SSW,209,1.0,2.0,52,0.00,,,0.00,0,LWC V2.00 B2112,2013-06-04 04:35:00,
2013-06-04 00:41:00,67.6,48.3,29.88,SSW,209,1.0,2.0,50,0.00,,,0.00,0,LWC V2.00 B2112,2013-06-04 04:41:00,
2013-06-04 00:46:00,67.3,46.9,29.88,SW,226,1.0,2.0,48,0.00,,,0.00,0,LWC V2.00 B2112,2013-06-04 04:46:00,
2013-06-04 00:51:00,67.1,47.3,29.88,WNW,299,0.0,1.0,49,0.00,,,0.00,0,LWC V2.00 B2112,2013-06-04 04:51:00,
2013-06-04 00:56:00,66.8,46.5,29.88,West,273,1.0,2.0,48,0.00,,,0.00,0,LWC V2.00 B2112,2013-06-04 04:56:00,
2013-06-04 01:00:00,66.5,47.3,29.88,West,273,1.0,1.0,50,0.00,,,0.00,0,LWC V2.00 B2112,2013-06-04 05:00:00,
2013-06-04 01:05:00,66.3,46.6,29.89,West,273,0.0,2.0,49,0.00,,,0.00,0,LWC V2.00 B2112,2013-06-04 05:05:00,
2013-06-04 01:10:00,66.1,46.9,29.89,SW,215,1.0,1.0,50,0.00,,,0.00,0,LWC V2.00 B2112,2013-06-04 05:10:00,
2013-06-04 01:15:00,65.8,46.1,29.89,SSW,196,2.0,2.0,49,0.00,,,0.00,0,LWC V2.00 B2112,2013-06-04 05:15:00,
2013-06-04 01:20:00,65.7,46.0,29.89,SSW,207,0.0,2.0,49,0.00,,,0.00,0,LWC V2.00 B2112,2013-06-04 05:20:00,
2013-06-04 01:25:00,65.5,46.9,29.89,SSW,207,0.0,0.0,51,0.00,,,0.00,0,LWC V2.00 B2112,2013-06-04 05:25:00,
2013-06-04 01:30:00,65.4,46.3,29.89,South,182,0.0,2.0,50,0.00,,,0.00,0,LWC V2.00 B2112,2013-06-04 05:30:00,
2013-06-04 01:35:00,65.2,47.1,29.89,South,182,1.0,2.0,52,0.00,,,0.00,0,LWC V2.00 B2112,2013-06-04 05:35:00,
2013-06-04 01:40:00,65.1,46.5,29.89,SSW,206,0.0,5.0,51,0.00,,,0.00,0,LWC V2.00 B2112,2013-06-04 05:40:00,
2013-06-04 01:45:00,65.0,46.9,29.89,SSW,206,0.0,1.0,52,0.00,,,0.00,0,LWC V2.00 B2112,2013-06-04 05:45:00,
2013-06-04 01:50:00,64.8,46.2,29.89,SSW,206,1.0,1.0,51,0.00,,,0.00,0,LWC V2.00 B2112,2013-06-04 05:50:00,
2013-06-04 01:55:00,64.6,46.6,29.90,SSW,206,0.0,1.0,52,0.00,,,0.00,0,LWC V2.00 B2112,2013-06-04 05:55:00,
2013-06-04 02:00:00,64.5,46.5,29.90,SSW,206,0.0,1.0,52,0.00,,,0.00,0,LWC V2.00 B2112,2013-06-04 06:00:00,
2013-06-04 02:05:00,64.3,46.8,29.90,SSW,206,0.0,0.0,53,0.00,,,0.00,0,LWC V2.00 B2112,2013-06-04 06:05:00,
2013-06-04 02:10:00,64.2,46.7,29.90,SSW,206,0.0,0.0,53,0.00,,,0.00,0,LWC V2.00 B2112,2013-06-04 06:10:00,
2013-06-04 02:15:00,64.0,46.5,29.90,SSW,206,0.0,1.0,53,0.00,,,0.00,0,LWC V2.00 B2112,2013-06-04 06:15:00,
2013-06-04 02:20:00,63.9,45.9,29.90,SSW,206,0.0,1.0,52,0.00,,,0.00,0,LWC V2.00 B2112,2013-06-04 06:20:00,
2013-06-04 02:25:00,63.8,46.3,29.91,SSW,197,0.0,1.0,53,0.00,,,0.00,0,LWC V2.00 B2112,2013-06-04 06:25:00,
2013-06-04 02:30:00,63.7,46.2,29.90,SSW,197,1.0,1.0,53,0.00,,,0.00,0,LWC V2.00 B2112,2013-06-04 06:30:00,
2013-06-04 02:35:00,63.6,46.2,29.91,South,180,1.0,2.0,53,0.00,,,0.00,0,LWC V2.00 B2112,2013-06-04 06:35:00,
2013-06-04 02:40:00,63.6,47.1,29.90,West,271,0.0,1.0,55,0.00,,,0.00,0,LWC V2.00 B2112,2013-06-04 06:40:00,
2013-06-04 02:45:00,63.5,46.6,29.90,West,263,0.0,1.0,54,0.00,,,0.00,0,LWC V2.00 B2112,2013-06-04 06:45:00,
2013-06-04 02:50:00,63.4,46.9,29.91,West,263,0.0,0.0,55,0.00,,,0.00,0,LWC V2.00 B2112,2013-06-04 06:50:00,
2013-06-04 02:55:00,63.3,46.9,29.91,West,259,0.0,1.0,55,0.00,,,0.00,0,LWC V2.00 B2112,2013-06-04 06:55:00,
2013-06-04 03:00:00,63.2,47.2,29.91,West,259,0.0,1.0,56,0.00,,,0.00,0,LWC V2.00 B2112,2013-06-04 07:00:00,
2013-06-04 03:05:00,63.1,47.1,29.91,West,259,0.0,0.0,56,0.00,,,0.00,0,LWC V2.00 B2112,2013-06-04 07:05:00,
2013-06-04 03:10:00,63.0,47.1,29.91,West,259,0.0,0.0,56,0.00,,,0.00,0,LWC V2.00 B2112,2013-06-04 07:10:00,
2013-06-04 03:15:00,62.9,47.0,29.91,West,259,0.0,1.0,56,0.00,,,0.00,0,LWC V2.00 B2112,2013-06-04 07:15:00,
2013-06-04 03:20:00,62.8,47.3,29.91,SSW,202,0.0,1.0,57,0.00,,,0.00,0,LWC V2.00 B2112,2013-06-04 07:20:00,
2013-06-04 03:25:00,62.6,47.1,29.91,SSW,202,0.0,1.0,57,0.00,,,0.00,0,LWC V2.00 B2112,2013-06-04 07:25:00,
2013-06-04 03:30:00,62.5,47.1,29.92,SSW,193,2.0,3.0,57,0.00,,,0.00,0,LWC V2.00 B2112,2013-06-04 07:30:00,
2013-06-04 03:35:00,62.3,47.3,29.92,SSW,194,0.0,1.0,58,0.00,,,0.00,0,LWC V2.00 B2112,2013-06-04 07:35:00,
2013-06-04 03:40:00,62.2,47.2,29.92,South,186,0.0,0.0,58,0.00,,,0.00,0,LWC V2.00 B2112,2013-06-04 07:40:00,
2013-06-04 03:45:00,61.9,46.5,29.92,NW,319,3.0,3.0,57,0.00,,,0.00,0,LWC V2.00 B2112,2013-06-04 07:45:00,
2013-06-04 03:50:00,61.7,47.2,29.92,NW,319,0.0,1.0,59,0.00,,,0.00,0,LWC V2.00 B2112,2013-06-04 07:50:00,
2013-06-04 03:55:00,61.5,46.6,29.92,NW,319,0.0,1.0,58,0.00,,,0.00,0,LWC V2.00 B2112,2013-06-04 07:55:00,
2013-06-04 04:00:00,61.3,46.8,29.92,NW,319,1.0,1.0,59,0.00,,,0.00,0,LWC V2.00 B2112,2013-06-04 08:00:00,
2013-06-04 04:05:00,61.1,47.1,29.92,NW,317,0.0,0.0,60,0.00,,,0.00,0,LWC V2.00 B2112,2013-06-04 08:05:00,
2013-06-04 04:10:00,60.9,46.9,29.92,NW,317,0.0,1.0,60,0.00,,,0.00,0,LWC V2.00 B2112,2013-06-04 08:10:00,
2013-06-04 04:15:00,60.7,46.3,29.92,NW,317,0.0,3.0,59,0.00,,,0.00,0,LWC V2.00 B2112,2013-06-04 08:15:00,
2013-06-04 04:20:00,60.5,46.5,29.92,NW,317,0.0,2.0,60,0.00,,,0.00,0,LWC V2.00 B2112,2013-06-04 08:20:00,
2013-06-04 04:25:00,60.4,46.4,29.92,NW,317,0.0,1.0,60,0.00,,,0.00,0,LWC V2.00 B2112,2013-06-04 08:25:00,
2013-06-04 04:30:00,60.2,46.3,29.92,NW,317,0.0,2.0,60,0.00,,,0.00,0,LWC V2.00 B2112,2013-06-04 08:30:00,
2013-06-04 04:35:00,60.0,46.5,29.93,NW,317,0.0,0.0,61,0.00,,,0.00,0,LWC V2.00 B2112,2013-06-04 08:35:00,
2013-06-04 04:40:00,59.8,46.8,29.93,NW,317,0.0,0.0,62,0.00,,,0.00,0,LWC V2.00 B2112,2013-06-04 08:40:00,
2013-06-04 04:45:00,59.6,46.6,29.93,NW,317,1.0,1.0,62,0.00,,,0.00,0,LWC V2.00 B2112,2013-06-04 08:45:00,
2013-06-04 04:50:00,59.5,46.5,29.93,NW,317,0.0,2.0,62,0.00,,,0.00,0,LWC V2.00 B2112,2013-06-04 08:50:00,
2013-06-04 04:55:00,59.3,46.3,29.93,NW,317,1.0,3.0,62,0.00,,,0.00,0,LWC V2.00 B2112,2013-06-04 08:55:00,
2013-06-04 05:00:00,59.2,46.2,29.93,NW,317,0.0,2.0,62,0.00,,,0.00,0,LWC V2.00 B2112,2013-06-04 09:00:00,
2013-06-04 05:05:00,59.1,46.5,29.94,NW,317,0.0,2.0,63,0.00,,,0.00,0,LWC V2.00 B2112,2013-06-04 09:05:00,
2013-06-04 05:10:00,59.0,46.4,29.94,NW,317,1.0,1.0,63,0.00,,,0.00,0,LWC V2.00 B2112,2013-06-04 09:10:00,
2013-06-04 05:15:00,58.9,46.7,29.94,NW,317,0.0,1.0,64,0.00,,,0.00,0,LWC V2.00 B2112,2013-06-04 09:15:00,
2013-06-04 05:20:00,58.7,46.6,29.94,NW,317,0.0,1.0,64,0.00,,,0.00,0,LWC V2.00 B2112,2013-06-04 09:20:00,
2013-06-04 05:25:00,58.6,46.5,29.95,NW,317,0.0,2.0,64,0.00,,,0.00,0,LWC V2.00 B2112,2013-06-04 09:25:00,
2013-06-04 05:30:00,58.5,46.4,29.95,NW,317,1.0,2.0,64,0.00,,,0.00,0,LWC V2.00 B2112,2013-06-04 09:30:00,
2013-06-04 05:35:00,58.3,46.2,29.95,NW,317,0.0,1.0,64,0.00,,,0.00,0,LWC V2.00 B2112,2013-06-04 09:35:00,
2013-06-04 05:40:00,58.2,46.5,29.95,NW,317,0.0,1.0,65,0.00,,,0.00,0,LWC V2.00 B2112,2013-06-04 09:40:00,
2013-06-04 05:45:00,58.1,46.4,29.95,NW,317,0.0,0.0,65,0.00,,,0.00,0,LWC V2.00 B2112,2013-06-04 09:45:00,
2013-06-04 05:50:00,58.0,46.3,29.96,NW,317,0.0,1.0,65,0.00,,,0.00,0,LWC V2.00 B2112,2013-06-04 09:50:00,
2013-06-04 05:55:00,57.8,46.5,29.96,NW,317,1.0,2.0,66,0.00,,,0.00,0,LWC V2.00 B2112,2013-06-04 09:55:00,
2013-06-04 06:00:00,57.8,46.9,29.96,NW,317,1.0,1.0,67,0.00,,,0.00,0,LWC V2.00 B2112,2013-06-04 10:00:00,
2013-06-04 06:05:00,57.6,46.7,29.96,NW,317,0.0,0.0,67,0.00,,,0.00,0,LWC V2.00 B2112,2013-06-04 10:05:00,
2013-06-04 06:10:00,57.6,46.7,29.97,NW,317,1.0,1.0,67,0.00,,,0.00,5,LWC V2.00 B2112,2013-06-04 10:10:00,
2013-06-04 06:15:00,57.5,46.2,29.97,NW,317,0.0,1.0,66,0.00,,,0.00,7,LWC V2.00 B2112,2013-06-04 10:15:00,
2013-06-04 06:20:00,57.5,47.0,29.97,NW,317,0.0,0.0,68,0.00,,,0.00,5,LWC V2.00 B2112,2013-06-04 10:20:00,
2013-06-04 06:25:00,57.5,47.0,29.97,NW,317,0.0,0.0,68,0.00,,,0.00,5,LWC V2.00 B2112,2013-06-04 10:25:00,
2013-06-04 06:30:00,57.4,46.5,29.97,NW,317,1.0,2.0,67,0.00,,,0.00,7,LWC V2.00 B2112,2013-06-04 10:30:00,
2013-06-04 06:35:00,57.5,46.6,29.97,NW,317,0.0,0.0,67,0.00,,,0.00,7,LWC V2.00 B2112,2013-06-04 10:35:00,
2013-06-04 06:40:00,57.5,47.0,29.98,NW,317,0.0,1.0,68,0.00,,,0.00,7,LWC V2.00 B2112,2013-06-04 10:40:00,
2013-06-04 06:45:00,57.5,46.6,29.97,NW,317,0.0,2.0,67,0.00,,,0.00,7,LWC V2.00 B2112,2013-06-04 10:45:00,
2013-06-04 06:50:00,57.5,47.0,29.97,NW,317,0.0,0.0,68,0.00,,,0.00,7,LWC V2.00 B2112,2013-06-04 10:50:00,
2013-06-04 06:55:00,57.6,47.5,29.97,NW,317,0.0,1.0,69,0.00,,,0.00,9,LWC V2.00 B2112,2013-06-04 10:55:00,
2013-06-04 07:00:00,57.6,47.9,29.98,NW,317,0.0,1.0,70,0.00,,,0.00,9,LWC V2.00 B2112,2013-06-04 11:00:00,
2013-06-04 07:05:00,57.7,46.8,29.98,NW,317,1.0,1.0,67,0.00,,,0.00,9,LWC V2.00 B2112,2013-06-04 11:05:00,
2013-06-04 07:10:00,57.8,46.9,29.98,NW,317,0.0,1.0,67,0.00,,,0.00,11,LWC V2.00 B2112,2013-06-04 11:10:00,
2013-06-04 07:15:00,57.9,46.6,29.98,NW,317,1.0,1.0,66,0.00,,,0.00,11,LWC V2.00 B2112,2013-06-04 11:15:00,
2013-06-04 07:20:00,58.1,47.2,29.98,NW,317,1.0,3.0,67,0.00,,,0.00,12,LWC V2.00 B2112,2013-06-04 11:20:00,
2013-06-04 07:25:00,58.2,46.9,29.98,NW,309,2.0,4.0,66,0.00,,,0.00,12,LWC V2.00 B2112,2013-06-04 11:25:00,
2013-06-04 07:30:00,58.3,47.4,29.98,West,273,0.0,4.0,67,0.00,,,0.00,14,LWC V2.00 B2112,2013-06-04 11:30:00,
2013-06-04 07:35:00,58.5,46.4,29.98,WNW,299,0.0,3.0,64,0.00,,,0.00,16,LWC V2.00 B2112,2013-06-04 11:35:00,
2013-06-04 07:40:00,58.6,46.9,29.99,SSE,162,2.0,3.0,65,0.00,,,0.00,42,LWC V2.00 B2112,2013-06-04 11:40:00,
2013-06-04 07:45:00,58.8,46.6,29.99,WSW,254,1.0,1.0,64,0.00,,,0.00,18,LWC V2.00 B2112,2013-06-04 11:45:00,
2013-06-04 07:50:00,59.0,47.2,29.99,West,269,0.0,1.0,65,0.00,,,0.00,19,LWC V2.00 B2112,2013-06-04 11:50:00,
2013-06-04 07:55:00,59.2,47.0,29.99,WSW,238,1.0,2.0,64,0.00,,,0.00,19,LWC V2.00 B2112,2013-06-04 11:55:00,
2013-06-04 08:00:00,59.4,46.4,29.99,WSW,249,3.0,4.0,62,0.00,,,0.00,149,LWC V2.00 B2112,2013-06-04 12:00:00,
2013-06-04 08:05:00,59.5,46.0,30.00,SSW,206,1.0,4.0,61,0.00,,,0.00,28,LWC V2.00 B2112,2013-06-04 12:05:00,
2013-06-04 08:10:00,59.6,46.1,30.00,SSE,158,2.0,5.0,61,0.00,,,0.00,113,LWC V2.00 B2112,2013-06-04 12:10:00,
2013-06-04 08:15:00,59.8,46.3,30.00,WSW,238,1.0,3.0,61,0.00,,,0.00,25,LWC V2.00 B2112,2013-06-04 12:15:00,
2013-06-04 08:20:00,59.9,46.8,30.00,West,261,1.0,2.0,62,0.00,,,0.00,156,LWC V2.00 B2112,2013-06-04 12:20:00,
2013-06-04 08:25:00,60.1,46.2,30.00,West,274,0.0,5.0,60,0.00,,,0.00,100,LWC V2.00 B2112,2013-06-04 12:25:00,
2013-06-04 08:30:00,60.2,46.3,30.00,West,260,2.0,2.0,60,0.00,,,0.00,70,LWC V2.00 B2112,2013-06-04 12:30:00,
2013-06-04 08:35:00,60.3,46.4,30.00,South,171,2.0,2.0,60,0.00,,,0.00,49,LWC V2.00 B2112,2013-06-04 12:35:00,
2013-06-04 08:40:00,60.5,45.6,30.00,SW,226,1.0,3.0,58,0.00,,,0.00,225,LWC V2.00 B2112,2013-06-04 12:40:00,
2013-06-04 08:45:00,60.6,45.7,30.01,SW,221,2.0,3.0,58,0.00,,,0.00,32,LWC V2.00 B2112,2013-06-04 12:45:00,
2013-06-04 08:50:00,60.7,46.3,30.01,SSE,154,1.0,4.0,59,0.00,,,0.00,30,LWC V2.00 B2112,2013-06-04 12:50:00,
2013-06-04 08:55:00,60.9,45.6,30.01,South,191,2.0,3.0,57,0.00,,,0.00,30,LWC V2.00 B2112,2013-06-04 12:55:00,
2013-06-04 09:00:00,60.9,46.0,30.01,SSW,213,1.0,4.0,58,0.00,,,0.00,32,LWC V2.00 B2112,2013-06-04 13:00:00,
2013-06-04 09:05:00,61.1,45.7,30.01,SSE,157,2.0,2.0,57,0.00,,,0.00,33,LWC V2.00 B2112,2013-06-04 13:05:00,
2013-06-04 09:10:00,61.4,46.0,30.01,West,267,3.0,4.0,57,0.00,,,0.00,33,LWC V2.00 B2112,2013-06-04 13:10:00,
2013-06-04 09:15:00,61.5,46.1,30.02,WSW,250,0.0,4.0,57,0.00,,,0.00,35,LWC V2.00 B2112,2013-06-04 13:15:00,
2013-06-04 09:20:00,61.6,45.7,30.01,SSW,205,0.0,2.0,56,0.00,,,0.00,37,LWC V2.00 B2112,2013-06-04 13:20:00,
2013-06-04 09:25:00,61.8,46.4,30.02,South,184,0.0,3.0,57,0.00,,,0.00,37,LWC V2.00 B2112,2013-06-04 13:25:00,
2013-06-04 09:30:00,61.9,46.0,30.02,WSW,240,0.0,1.0,56,0.00,,,0.00,39,LWC V2.00 B2112,2013-06-04 13:30:00,
2013-06-04 09:35:00,62.2,47.7,30.02,SW,227,1.0,2.0,59,0.00,,,0.00,39,LWC V2.00 B2112,2013-06-04 13:35:00,
2013-06-04 09:40:00,62.4,47.0,30.02,WSW,244,0.0,2.0,57,0.00,,,0.00,39,LWC V2.00 B2112,2013-06-04 13:40:00,
2013-06-04 09:45:00,62.5,47.1,30.02,WNW,289,2.0,3.0,57,0.00,,,0.00,40,LWC V2.00 B2112,2013-06-04 13:45:00,
2013-06-04 09:50:00,62.6,46.2,30.02,SW,236,1.0,3.0,55,0.00,,,0.00,40,LWC V2.00 B2112,2013-06-04 13:50:00,
2013-06-04 09:55:00,62.6,46.2,30.02,SSW,213,2.0,3.0,55,0.00,,,0.00,40,LWC V2.00 B2112,2013-06-04 13:55:00,
2013-06-04 10:00:00,62.8,46.4,30.02,WNW,296,5.0,5.0,55,0.00,,,0.00,40,LWC V2.00 B2112,2013-06-04 14:00:00,
2013-06-04 10:05:00,62.9,47.4,30.02,WSW,247,3.0,3.0,57,0.00,,,0.00,40,LWC V2.00 B2112,2013-06-04 14:05:00,
2013-06-04 10:10:00,63.2,47.2,30.02,WSW,248,0.0,2.0,56,0.00,,,0.00,40,LWC V2.00 B2112,2013-06-04 14:10:00,
2013-06-04 10:15:00,63.4,46.9,30.02,WSW,255,0.0,1.0,55,0.00,,,0.00,40,LWC V2.00 B2112,2013-06-04 14:15:00,
2013-06-04 10:20:00,63.7,47.2,30.02,West,267,0.0,3.0,55,0.00,,,0.00,40,LWC V2.00 B2112,2013-06-04 14:20:00,
2013-06-04 10:25:00,63.9,48.4,30.02,SW,215,1.0,2.0,57,0.00,,,0.00,40,LWC V2.00 B2112,2013-06-04 14:25:00,
2013-06-04 10:30:00,64.1,47.6,30.02,West,263,0.0,4.0,55,0.00,,,0.00,40,LWC V2.00 B2112,2013-06-04 14:30:00,
2013-06-04 10:35:00,64.2,48.2,30.02,West,263,1.0,1.0,56,0.00,,,0.00,40,LWC V2.00 B2112,2013-06-04 14:35:00,
2013-06-04 10:40:00,64.5,47.5,30.03,WSW,257,1.0,2.0,54,0.00,,,0.00,40,LWC V2.00 B2112,2013-06-04 14:40:00,
2013-06-04 10:45:00,64.6,48.5,30.02,West,259,1.0,2.0,56,0.00,,,0.00,40,LWC V2.00 B2112,2013-06-04 14:45:00,
2013-06-04 10:50:00,64.8,46.8,30.02,WSW,256,1.0,3.0,52,0.00,,,0.00,42,LWC V2.00 B2112,2013-06-04 14:50:00,
2013-06-04 10:55:00,64.9,48.3,30.02,SE,133,0.0,1.0,55,0.00,,,0.00,40,LWC V2.00 B2112,2013-06-04 14:55:00,
2013-06-04 11:00:00,65.2,48.1,30.02,NNE,24,0.0,2.0,54,0.00,,,0.00,42,LWC V2.00 B2112,2013-06-04 15:00:00,
2013-06-04 11:05:00,65.5,47.9,30.02,NNE,23,1.0,3.0,53,0.00,,,0.00,42,LWC V2.00 B2112,2013-06-04 15:05:00,
2013-06-04 11:10:00,65.8,47.7,30.02,NNE,23,4.0,4.0,52,0.00,,,0.00,42,LWC V2.00 B2112,2013-06-04 15:10:00,
2013-06-04 11:15:00,66.0,47.3,30.02,NNE,31,0.0,1.0,51,0.00,,,0.00,42,LWC V2.00 B2112,2013-06-04 15:15:00,
2013-06-04 11:20:00,66.1,48.5,30.02,NE,49,0.0,1.0,53,0.00,,,0.00,44,LWC V2.00 B2112,2013-06-04 15:20:00,
2013-06-04 11:25:00,66.2,47.5,30.02,NNE,23,1.0,2.0,51,0.00,,,0.00,44,LWC V2.00 B2112,2013-06-04 15:25:00,
2013-06-04 11:30:00,66.4,47.7,30.02,NNE,23,0.0,1.0,51,0.00,,,0.00,46,LWC V2.00 B2112,2013-06-04 15:30:00,
2013-06-04 11:35:00,66.7,48.5,30.02,NNE,23,0.0,3.0,52,0.00,,,0.00,46,LWC V2.00 B2112,2013-06-04 15:35:00,
2013-06-04 11:40:00,67.2,48.5,30.02,NNE,23,2.0,2.0,51,0.00,,,0.00,46,LWC V2.00 B2112,2013-06-04 15:40:00,
2013-06-04 11:45:00,67.4,47.0,30.02,NNE,23,1.0,3.0,48,0.00,,,0.00,46,LWC V2.00 B2112,2013-06-04 15:45:00,
2013-06-04 11:50:00,67.7,47.3,30.02,NNE,23,1.0,1.0,48,0.00,,,0.00,47,LWC V2.00 B2112,2013-06-04 15:50:00,
2013-06-04 11:55:00,68.1,48.2,30.02,NNE,23,0.0,2.0,49,0.00,,,0.00,49,LWC V2.00 B2112,2013-06-04 15:55:00,
2013-06-04 12:00:00,68.5,48.0,30.02,NNE,23,0.0,4.0,48,0.00,,,0.00,51,LWC V2.00 B2112,2013-06-04 16:00:00,
2013-06-04 12:05:00,68.6,48.7,30.02,NNE,23,1.0,2.0,49,0.00,,,0.00,51,LWC V2.00 B2112,2013-06-04 16:05:00,
2013-06-04 12:10:00,68.9,47.8,30.02,NNE,23,0.0,0.0,47,0.00,,,0.00,53,LWC V2.00 B2112,2013-06-04 16:10:00,
2013-06-04 12:15:00,69.0,47.9,30.02,NNE,23,2.0,4.0,47,0.00,,,0.00,56,LWC V2.00 B2112,2013-06-04 16:15:00,
2013-06-04 12:20:00,69.3,47.0,30.02,NNE,23,1.0,2.0,45,0.00,,,0.00,56,LWC V2.00 B2112,2013-06-04 16:20:00,
2013-06-04 12:25:00,69.6,49.0,30.02,NNE,23,0.0,3.0,48,0.00,,,0.00,60,LWC V2.00 B2112,2013-06-04 16:25:00,
2013-06-04 12:30:00,69.9,47.6,30.02,NNE,23,0.0,4.0,45,0.00,,,0.00,100,LWC V2.00 B2112,2013-06-04 16:30:00,
2013-06-04 12:35:00,70.0,49.9,30.02,SSW,202,1.0,3.0,49,0.00,,,0.00,125,LWC V2.00 B2112,2013-06-04 16:35:00,
2013-06-04 12:40:00,70.1,49.5,30.01,West,265,2.0,4.0,48,0.00,,,0.00,130,LWC V2.00 B2112,2013-06-04 16:40:00,
2013-06-04 12:45:00,70.5,48.7,30.01,WSW,250,0.0,3.0,46,0.00,,,0.00,135,LWC V2.00 B2112,2013-06-04 16:45:00,
2013-06-04 12:50:00,71.0,48.6,30.02,North,350,0.0,1.0,45,0.00,,,0.00,146,LWC V2.00 B2112,2013-06-04 16:50:00,
2013-06-04 12:55:00,71.4,48.3,30.01,North,351,0.0,3.0,44,0.00,,,0.00,540,LWC V2.00 B2112,2013-06-04 16:55:00,
2013-06-04 13:00:00,72.0,48.3,30.01,NW,313,2.0,2.0,43,0.00,,,0.00,654,LWC V2.00 B2112,2013-06-04 17:00:00,
2013-06-04 13:05:00,72.3,49.2,30.01,NW,313,1.0,2.0,44,0.00,,,0.00,656,LWC V2.00 B2112,2013-06-04 17:05:00,
2013-06-04 13:10:00,72.5,46.8,30.01,WNW,292,0.0,3.0,40,0.00,,,0.00,652,LWC V2.00 B2112,2013-06-04 17:10:00,
2013-06-04 13:15:00,72.5,48.1,30.01,West,262,3.0,4.0,42,0.00,,,0.00,659,LWC V2.00 B2112,2013-06-04 17:15:00,
2013-06-04 13:20:00,72.7,47.6,30.00,West,262,2.0,2.0,41,0.00,,,0.00,657,LWC V2.00 B2112,2013-06-04 17:20:00,
2013-06-04 13:25:00,73.1,47.3,30.00,WSW,248,0.0,1.0,40,0.00,,,0.00,659,LWC V2.00 B2112,2013-06-04 17:25:00,
2013-06-04 13:30:00,73.4,50.8,30.00,North,350,0.0,3.0,45,0.00,,,0.00,640,LWC V2.00 B2112,2013-06-04 17:30:00,
2013-06-04 13:35:00,73.9,49.3,30.00,North,350,0.0,2.0,42,0.00,,,0.00,621,LWC V2.00 B2112,2013-06-04 17:35:00,
2013-06-04 13:40:00,74.3,47.7,30.00,NNW,344,0.0,4.0,39,0.00,,,0.00,603,LWC V2.00 B2112,2013-06-04 17:40:00,
2013-06-04 13:45:00,74.4,47.1,30.00,North,350,0.0,1.0,38,0.00,,,0.00,589,LWC V2.00 B2112,2013-06-04 17:45:00,
2013-06-04 13:50:00,74.5,47.9,30.00,WNW,303,0.0,3.0,39,0.00,,,0.00,585,LWC V2.00 B2112,2013-06-04 17:50:00,
2013-06-04 13:55:00,74.6,49.3,29.99,WNW,297,0.0,1.0,41,0.00,,,0.00,580,LWC V2.00 B2112,2013-06-04 17:55:00,
2013-06-04 14:00:00,74.8,48.2,29.99,West,261,3.0,3.0,39,0.00,,,0.00,571,LWC V2.00 B2112,2013-06-04 18:00:00,
2013-06-04 14:05:00,74.8,48.2,29.99,West,261,0.0,3.0,39,0.00,,,0.00,566,LWC V2.00 B2112,2013-06-04 18:05:00,
2013-06-04 14:10:00,74.8,48.8,29.99,West,262,2.0,4.0,40,0.00,,,0.00,561,LWC V2.00 B2112,2013-06-04 18:10:00,
2013-06-04 14:15:00,74.7,47.4,29.99,NNW,329,0.0,4.0,38,0.00,,,0.00,555,LWC V2.00 B2112,2013-06-04 18:15:00,
2013-06-04 14:20:00,74.8,49.5,29.99,NNW,329,0.0,0.0,41,0.00,,,0.00,555,LWC V2.00 B2112,2013-06-04 18:20:00,
2013-06-04 14:25:00,74.9,49.6,29.99,West,266,1.0,1.0,41,0.00,,,0.00,550,LWC V2.00 B2112,2013-06-04 18:25:00,
2013-06-04 14:30:00,75.0,47.7,29.99,WSW,252,0.0,3.0,38,0.00,,,0.00,496,LWC V2.00 B2112,2013-06-04 18:30:00,
2013-06-04 14:35:00,75.3,48.6,29.99,WSW,244,0.0,5.0,39,0.00,,,0.00,357,LWC V2.00 B2112,2013-06-04 18:35:00,
2013-06-04 14:40:00,75.7,49.6,29.99,SW,227,1.0,2.0,40,0.00,,,0.00,200,LWC V2.00 B2112,2013-06-04 18:40:00,
2013-06-04 14:45:00,75.9,48.5,29.98,SW,227,2.0,2.0,38,0.00,,,0.00,105,LWC V2.00 B2112,2013-06-04 18:45:00,
2013-06-04 14:50:00,75.9,48.5,29.98,SW,223,1.0,3.0,38,0.00,,,0.00,90,LWC V2.00 B2112,2013-06-04 18:50:00,
2013-06-04 14:55:00,75.9,47.7,29.99,WNW,296,1.0,2.0,37,0.00,,,0.00,90,LWC V2.00 B2112,2013-06-04 18:55:00,
2013-06-04 15:00:00,75.8,46.9,29.98,North,350,0.0,3.0,36,0.00,,,0.00,88,LWC V2.00 B2112,2013-06-04 19:00:00,
2013-06-04 15:05:00,75.8,49.1,29.98,North,350,0.0,3.0,39,0.00,,,0.00,88,LWC V2.00 B2112,2013-06-04 19:05:00,
2013-06-04 15:10:00,75.8,47.7,29.98,NNW,348,0.0,1.0,37,0.00,,,0.00,83,LWC V2.00 B2112,2013-06-04 19:10:00,
2013-06-04 15:15:00,75.9,47.7,29.98,NW,324,1.0,3.0,37,0.00,,,0.00,76,LWC V2.00 B2112,2013-06-04 19:15:00,
2013-06-04 15:20:00,75.7,48.3,29.98,North,350,0.0,1.0,38,0.00,,,0.00,74,LWC V2.00 B2112,2013-06-04 19:20:00,
2013-06-04 15:25:00,75.6,47.5,29.98,SSW,209,2.0,3.0,37,0.00,,,0.00,72,LWC V2.00 B2112,2013-06-04 19:25:00,
2013-06-04 15:30:00,75.5,47.4,29.98,South,174,0.0,2.0,37,0.00,,,0.00,70,LWC V2.00 B2112,2013-06-04 19:30:00,
2013-06-04 15:35:00,75.4,47.3,29.98,SW,232,0.0,2.0,37,0.00,,,0.00,69,LWC V2.00 B2112,2013-06-04 19:35:00,
2013-06-04 15:40:00,75.4,46.6,29.98,North,351,0.0,1.0,36,0.00,,,0.00,67,LWC V2.00 B2112,2013-06-04 19:40:00,
2013-06-04 15:45:00,75.4,48.7,29.98,North,351,0.0,2.0,39,0.00,,,0.00,65,LWC V2.00 B2112,2013-06-04 19:45:00,
2013-06-04 15:50:00,75.5,48.1,29.98,NNW,346,0.0,1.0,38,0.00,,,0.00,63,LWC V2.00 B2112,2013-06-04 19:50:00,
2013-06-04 15:55:00,75.5,46.7,29.98,NNW,346,0.0,3.0,36,0.00,,,0.00,62,LWC V2.00 B2112,2013-06-04 19:55:00,
2013-06-04 16:00:00,75.5,46.7,29.98,WNW,294,0.0,2.0,36,0.00,,,0.00,62,LWC V2.00 B2112,2013-06-04 20:00:00,
2013-06-04 16:05:00,75.5,45.9,29.98,WNW,290,0.0,1.0,35,0.00,,,0.00,60,LWC V2.00 B2112,2013-06-04 20:05:00,
2013-06-04 16:10:00,75.6,48.2,29.98,WNW,294,1.0,1.0,38,0.00,,,0.00,58,LWC V2.00 B2112,2013-06-04 20:10:00,
2013-06-04 16:15:00,75.7,50.3,29.98,NW,313,0.0,2.0,41,0.00,,,0.00,58,LWC V2.00 B2112,2013-06-04 20:15:00,
2013-06-04 16:20:00,75.8,47.7,29.98,NW,313,0.0,2.0,37,0.00,,,0.00,56,LWC V2.00 B2112,2013-06-04 20:20:00,
2013-06-04 16:25:00,75.8,46.2,29.98,WNW,287,3.0,3.0,35,0.00,,,0.00,54,LWC V2.00 B2112,2013-06-04 20:25:00,
2013-06-04 16:30:00,75.7,48.3,29.98,WNW,299,0.0,2.0,38,0.00,,,0.00,54,LWC V2.00 B2112,2013-06-04 20:30:00,
2013-06-04 16:35:00,75.6,48.2,29.98,NW,316,0.0,2.0,38,0.00,,,0.00,54,LWC V2.00 B2112,2013-06-04 20:35:00,
2013-06-04 16:40:00,75.7,48.3,29.98,North,350,1.0,3.0,38,0.00,,,0.00,53,LWC V2.00 B2112,2013-06-04 20:40:00,
2013-06-04 16:45:00,75.8,46.9,29.98,WNW,292,0.0,1.0,36,0.00,,,0.00,56,LWC V2.00 B2112,2013-06-04 20:45:00,
2013-06-04 16:50:00,75.9,46.3,29.98,WNW,290,0.0,1.0,35,0.00,,,0.00,54,LWC V2.00 B2112,2013-06-04 20:50:00,
2013-06-04 16:55:00,76.0,47.8,29.98,NW,311,1.0,2.0,37,0.00,,,0.00,54,LWC V2.00 B2112,2013-06-04 20:55:00,
2013-06-04 17:00:00,76.1,46.4,29.98,NW,311,0.0,2.0,35,0.00,,,0.00,53,LWC V2.00 B2112,2013-06-04 21:00:00,
2013-06-04 17:05:00,76.2,46.5,29.98,NW,311,0.0,0.0,35,0.00,,,0.00,53,LWC V2.00 B2112,2013-06-04 21:05:00,
2013-06-04 17:10:00,76.2,47.3,29.98,NW,311,1.0,1.0,36,0.00,,,0.00,47,LWC V2.00 B2112,2013-06-04 21:10:00,
2013-06-04 17:15:00,76.2,47.3,29.98,WNW,286,0.0,3.0,36,0.00,,,0.00,44,LWC V2.00 B2112,2013-06-04 21:15:00,
2013-06-04 17:20:00,76.1,47.2,29.98,South,184,0.0,3.0,36,0.00,,,0.00,42,LWC V2.00 B2112,2013-06-04 21:20:00,
2013-06-04 17:25:00,75.8,46.2,29.98,West,263,0.0,3.0,35,0.00,,,0.00,40,LWC V2.00 B2112,2013-06-04 21:25:00,
2013-06-04 17:30:00,75.8,49.1,29.98,West,262,0.0,2.0,39,0.00,,,0.00,40,LWC V2.00 B2112,2013-06-04 21:30:00,
2013-06-04 17:35:00,75.5,45.9,29.98,West,271,1.0,1.0,35,0.00,,,0.00,39,LWC V2.00 B2112,2013-06-04 21:35:00,
2013-06-04 17:40:00,75.5,46.7,29.98,WSW,250,0.0,1.0,36,0.00,,,0.00,37,LWC V2.00 B2112,2013-06-04 21:40:00,
2013-06-04 17:45:00,75.4,46.6,29.98,WSW,250,0.0,0.0,36,0.00,,,0.00,37,LWC V2.00 B2112,2013-06-04 21:45:00,
2013-06-04 17:50:00,75.3,48.6,29.98,WSW,250,0.0,0.0,39,0.00,,,0.00,35,LWC V2.00 B2112,2013-06-04 21:50:00,
2013-06-04 17:55:00,75.1,45.6,29.98,West,281,1.0,2.0,35,0.00,,,0.00,33,LWC V2.00 B2112,2013-06-04 21:55:00,
2013-06-04 18:00:00,75.0,47.7,29.98,West,281,0.0,1.0,38,0.00,,,0.00,33,LWC V2.00 B2112,2013-06-04 22:00:00,
2013-06-04 18:05:00,74.9,46.9,29.98,West,281,0.0,1.0,37,0.00,,,0.00,32,LWC V2.00 B2112,2013-06-04 22:05:00,
2013-06-04 18:10:00,74.8,45.3,29.98,West,281,0.0,3.0,35,0.00,,,0.00,32,LWC V2.00 B2112,2013-06-04 22:10:00,
2013-06-04 18:15:00,74.6,45.1,29.98,West,264,1.0,3.0,35,0.00,,,0.00,30,LWC V2.00 B2112,2013-06-04 22:15:00,
2013-06-04 18:20:00,74.6,45.9,29.98,West,264,0.0,2.0,36,0.00,,,0.00,30,LWC V2.00 B2112,2013-06-04 22:20:00,
2013-06-04 18:25:00,74.6,45.1,29.98,West,264,0.0,2.0,35,0.00,,,0.00,30,LWC V2.00 B2112,2013-06-04 22:25:00,
2013-06-04 18:30:00,74.6,45.9,29.98,West,264,0.0,1.0,36,0.00,,,0.00,28,LWC V2.00 B2112,2013-06-04 22:30:00,
2013-06-04 18:35:00,74.5,45.8,29.99,West,264,0.0,1.0,36,0.00,,,0.00,25,LWC V2.00 B2112,2013-06-04 22:35:00,
2013-06-04 18:40:00,74.4,44.9,29.99,West,264,2.0,2.0,35,0.00,,,0.00,25,LWC V2.00 B2112,2013-06-04 22:40:00,
2013-06-04 18:45:00,74.4,47.1,29.99,West,264,1.0,1.0,38,0.00,,,0.00,25,LWC V2.00 B2112,2013-06-04 22:45:00,
2013-06-04 18:50:00,74.2,44.8,29.99,West,277,0.0,2.0,35,0.00,,,0.00,23,LWC V2.00 B2112,2013-06-04 22:50:00,
2013-06-04 18:55:00,74.2,46.9,29.99,West,277,0.0,2.0,38,0.00,,,0.00,21,LWC V2.00 B2112,2013-06-04 22:55:00,
2013-06-04 19:00:00,74.0,45.3,29.99,West,277,0.0,2.0,36,0.00,,,0.00,19,LWC V2.00 B2112,2013-06-04 23:00:00,
2013-06-04 19:05:00,73.9,45.2,30.00,West,277,0.0,1.0,36,0.00,,,0.00,19,LWC V2.00 B2112,2013-06-04 23:05:00,
2013-06-04 19:10:00,73.8,45.9,30.00,West,277,0.0,2.0,37,0.00,,,0.00,19,LWC V2.00 B2112,2013-06-04 23:10:00,
2013-06-04 19:15:00,73.6,45.0,30.00,West,272,0.0,1.0,36,0.00,,,0.00,18,LWC V2.00 B2112,2013-06-04 23:15:00,
2013-06-04 19:20:00,73.5,47.0,30.00,West,272,0.0,0.0,39,0.00,,,0.00,14,LWC V2.00 B2112,2013-06-04 23:20:00,
2013-06-04 19:25:00,73.3,46.8,30.00,West,272,0.0,1.0,39,0.00,,,0.00,16,LWC V2.00 B2112,2013-06-04 23:25:00,
2013-06-04 19:30:00,73.1,47.3,30.00,West,272,0.0,1.0,40,0.00,,,0.00,11,LWC V2.00 B2112,2013-06-04 23:30:00,
2013-06-04 19:35:00,72.9,46.5,30.01,West,271,0.0,2.0,39,0.00,,,0.00,12,LWC V2.00 B2112,2013-06-04 23:35:00,
2013-06-04 19:40:00,72.7,45.6,30.01,West,271,0.0,2.0,38,0.00,,,0.00,14,LWC V2.00 B2112,2013-06-04 23:40:00,
2013-06-04 19:45:00,72.6,46.9,30.01,West,272,0.0,1.0,40,0.00,,,0.00,11,LWC V2.00 B2112,2013-06-04 23:45:00,
2013-06-04 19:50:00,72.4,46.7,30.01,West,270,0.0,1.0,40,0.00,,,0.00,9,LWC V2.00 B2112,2013-06-04 23:50:00,
2013-06-04 19:55:00,72.3,48.5,30.01,West,270,0.0,1.0,43,0.00,,,0.00,5,LWC V2.00 B2112,2013-06-04 23:55:00,
2013-06-04 20:00:00,72.1,49.0,30.01,West,270,0.0,0.0,44,0.00,,,0.00,5,LWC V2.00 B2112,2013-06-05 00:00:00,
2013-06-04 20:05:00,72.0,50.1,30.01,West,270,0.0,0.0,46,0.00,,,0.00,0,LWC V2.00 B2112,2013-06-05 00:05:00,
2013-06-04 20:10:00,71.7,48.6,30.01,West,270,0.0,0.0,44,0.00,,,0.00,0,LWC V2.00 B2112,2013-06-05 00:10:00,
2013-06-04 20:15:00,71.4,49.5,30.02,West,270,0.0,0.0,46,0.00,,,0.00,0,LWC V2.00 B2112,2013-06-05 00:15:00,
2013-06-04 20:20:00,71.3,48.8,30.02,West,270,0.0,0.0,45,0.00,,,0.00,0,LWC V2.00 B2112,2013-06-05 00:20:00,
2013-06-04 20:25:00,71.0,50.9,30.02,West,270,0.0,1.0,49,0.00,,,0.00,0,LWC V2.00 B2112,2013-06-05 00:25:00,
2013-06-04 20:30:00,70.6,51.0,30.02,West,270,0.0,0.0,50,0.00,,,0.00,0,LWC V2.00 B2112,2013-06-05 00:30:00,
2013-06-04 20:35:00,70.3,51.3,30.03,West,270,0.0,0.0,51,0.00,,,0.00,0,LWC V2.00 B2112,2013-06-05 00:35:00,
2013-06-04 20:40:00,69.8,50.8,30.03,West,270,0.0,1.0,51,0.00,,,0.00,0,LWC V2.00 B2112,2013-06-05 00:40:00,
2013-06-04 20:45:00,69.2,48.1,30.03,West,270,0.0,0.0,47,0.00,,,0.00,0,LWC V2.00 B2112,2013-06-05 00:45:00,
2013-06-04 20:50:00,68.8,51.0,30.03,West,270,0.0,0.0,53,0.00,,,0.00,0,LWC V2.00 B2112,2013-06-05 00:50:00,
2013-06-04 20:55:00,68.4,50.1,30.04,West,270,0.0,0.0,52,0.00,,,0.00,0,LWC V2.00 B2112,2013-06-05 00:55:00,
2013-06-04 21:00:00,68.1,49.3,30.04,West,270,0.0,0.0,51,0.00,,,0.00,0,LWC V2.00 B2112,2013-06-05 01:00:00,
2013-06-04 21:05:00,67.7,51.4,30.04,West,270,0.0,0.0,56,0.00,,,0.00,0,LWC V2.00 B2112,2013-06-05 01:05:00,
2013-06-04 21:10:00,67.3,48.5,30.04,West,270,0.0,0.0,51,0.00,,,0.00,0,LWC V2.00 B2112,2013-06-05 01:10:00,
2013-06-04 21:15:00,67.0,49.8,30.05,West,270,0.0,0.0,54,0.00,,,0.00,0,LWC V2.00 B2112,2013-06-05 01:15:00,
2013-06-04 21:20:00,66.8,52.0,30.05,West,270,0.0,0.0,59,0.00,,,0.00,0,LWC V2.00 B2112,2013-06-05 01:20:00,
2013-06-04 21:25:00,66.6,47.9,30.05,West,270,0.0,0.0,51,0.00,,,0.00,0,LWC V2.00 B2112,2013-06-05 01:25:00,
2013-06-04 21:30:00,66.5,47.3,30.05,West,270,0.0,0.0,50,0.00,,,0.00,0,LWC V2.00 B2112,2013-06-05 01:30:00,
2013-06-04 21:35:00,66.6,46.3,30.06,West,270,0.0,0.0,48,0.00,,,0.00,0,LWC V2.00 B2112,2013-06-05 01:35:00,
2013-06-04 21:40:00,66.7,45.8,30.06,West,270,0.0,0.0,47,0.00,,,0.00,0,LWC V2.00 B2112,2013-06-05 01:40:00,
2013-06-04 21:45:00,66.9,46.6,30.06,West,270,0.0,0.0,48,0.00,,,0.00,0,LWC V2.00 B2112,2013-06-05 01:45:00,
2013-06-04 21:50:00,67.1,46.2,30.07,West,270,0.0,0.0,47,0.00,,,0.00,0,LWC V2.00 B2112,2013-06-05 01:50:00,
2013-06-04 21:55:00,67.2,47.9,30.07,West,270,0.0,0.0,50,0.00,,,0.00,0,LWC V2.00 B2112,2013-06-05 01:55:00,
2013-06-04 22:00:00,67.2,49.5,30.07,West,270,0.0,0.0,53,0.00,,,0.00,0,LWC V2.00 B2112,2013-06-05 02:00:00,
2013-06-04 22:05:00,67.0,49.8,30.07,West,270,0.0,0.0,54,0.00,,,0.00,0,LWC V2.00 B2112,2013-06-05 02:05:00,
2013-06-04 22:10:00,66.7,49.0,30.07,West,270,0.0,0.0,53,0.00,,,0.00,0,LWC V2.00 B2112,2013-06-05 02:10:00,
2013-06-04 22:15:00,66.3,49.6,30.07,West,270,0.0,0.0,55,0.00,,,0.00,0,LWC V2.00 B2112,2013-06-05 02:15:00,
2013-06-04 22:20:00,65.9,49.8,30.08,West,270,0.0,0.0,56,0.00,,,0.00,0,LWC V2.00 B2112,2013-06-05 02:20:00,
2013-06-04 22:25:00,65.4,48.3,30.08,West,270,0.0,0.0,54,0.00,,,0.00,0,LWC V2.00 B2112,2013-06-05 02:25:00,
2013-06-04 22:30:00,65.0,49.4,30.08,West,270,0.0,0.0,57,0.00,,,0.00,0,LWC V2.00 B2112,2013-06-05 02:30:00,
2013-06-04 22:35:00,64.7,48.2,30.07,West,270,0.0,0.0,55,0.00,,,0.00,0,LWC V2.00 B2112,2013-06-05 02:35:00,
2013-06-04 22:40:00,64.6,50.4,30.08,West,270,0.0,0.0,60,0.00,,,0.00,0,LWC V2.00 B2112,2013-06-05 02:40:00,
2013-06-04 22:45:00,64.4,47.4,30.08,West,270,0.0,0.0,54,0.00,,,0.00,0,LWC V2.00 B2112,2013-06-05 02:45:00,
2013-06-04 22:50:00,64.3,46.8,30.08,West,270,0.0,0.0,53,0.00,,,0.00,0,LWC V2.00 B2112,2013-06-05 02:50:00,
2013-06-04 22:55:00,64.4,46.9,30.08,West,270,0.0,0.0,53,0.00,,,0.00,0,LWC V2.00 B2112,2013-06-05 02:55:00,
2013-06-04 23:00:00,64.4,46.4,30.08,West,270,0.0,0.0,52,0.00,,,0.00,0,LWC V2.00 B2112,2013-06-05 03:00:00,
2013-06-04 23:05:00,64.5,47.0,30.08,West,270,0.0,0.0,53,0.00,,,0.00,0,LWC V2.00 B2112,2013-06-05 03:05:00,
2013-06-04 23:10:00,64.5,46.0,30.08,West,270,0.0,0.0,51,0.00,,,0.00,0,LWC V2.00 B2112,2013-06-05 03:10:00,
2013-06-04 23:15:00,64.5,46.0,30.08,West,270,0.0,0.0,51,0.00,,,0.00,0,LWC V2.00 B2112,2013-06-05 03:15:00,
2013-06-04 23:20:00,64.5,46.5,30.08,West,270,0.0,0.0,52,0.00,,,0.00,0,LWC V2.00 B2112,2013-06-05 03:20:00,
2013-06-04 23:25:00,64.5,46.5,30.08,West,270,0.0,0.0,52,0.00,,,0.00,0,LWC V2.00 B2112,2013-06-05 03:25:00,
2013-06-04 23:30:00,64.5,46.0,30.08,West,270,0.0,0.0,51,0.00,,,0.00,0,LWC V2.00 B2112,2013-06-05 03:30:00,
2013-06-04 23:35:00,64.4,45.9,30.08,West,270,0.0,0.0,51,0.00,,,0.00,0,LWC V2.00 B2112,2013-06-05 03:35:00,
2013-06-04 23:40:00,64.3,45.3,30.08,West,270,0.0,1.0,50,0.00,,,0.00,0,LWC V2.00 B2112,2013-06-05 03:40:00,
2013-06-04 23:45:00,64.3,45.3,30.08,West,270,0.0,0.0,50,0.00,,,0.00,0,LWC V2.00 B2112,2013-06-05 03:45:00,
2013-06-04 23:50:00,64.3,45.8,30.08,West,270,0.0,0.0,51,0.00,,,0.00,0,LWC V2.00 B2112,2013-06-05 03:50:00,
2013-06-04 23:55:00,64.2,47.7,30.09,West,270,0.0,0.0,55,0.00,,,0.00,0,LWC V2.00 B2112,2013-06-05 03:55:00,